Location: Bednik
(45.3500°N, 16.3833°E)
Time: 08:21:13
(UTC+00:00)

BREEZE-M DEB (TANK) - Pass Details

Date: 08 August 2020
Orbit: 434 x 13231 km, 46.0° (Epoch: 26 September)

Event Time Altitude Azimuth Distance (km) Brightness Sun altitude
Rises 21:05:49 0° 264° (W) 10,346 9.6 -23.6°
Reaches altitude 10° 21:15:55 10° 266° (W) 7,126 8.7 -24.4°
Maximum altitude 21:32:07 86° 358° (N) 1,242 4.4 -25.7°
Enters shadow 21:34:50 31° 85° (E) 1,520 4.8 -25.9°
